Погода в Пирее

Греция     37°56′45″N   23°39′13″E
темп.,
°C
ветер,
м/с
пор.,
м/с
влажн.,
%
обл.,
%
осадки,
мм/ч
давл.,
гПа
погр.,
м
5 декабря, вс
вс523:00+11ссв22840 0.0 101027
02:00+11с22860 0.0 101023
05:00+10с11840 0.0 101018
08:00+10ююз11840 0.0 101219
11:00+14юз23690 0.0 1012482
14:00+15юз34650 0.0 1011794
17:00+13ююз33761 0.0 1011144
20:00+12ююз22822 0.0 101238
6 декабря, пн
пн623:00+12зюз11800 0.0 101129
02:00+11юз22830 0.0 101131
05:00+11ю228326 0.0 101030
08:00+11ю22830 0.0 101026
11:00+16ююз710630 0.0 10111160
14:00+16ююз1117640 0.0 10081514
17:00+15ююз11167226 0.0 1008941
20:00+14ю1016795 0.1 1008914
7 декабря, вт
вт723:00+13ю10178037 0.9 1007971
02:00+13ю101677100 3.3 10051113
05:00+13ю101575100 3.3 1003865
08:00+11ю81477100 4.8 1002771
11:00+12ююз6871100 1.1 1002943
14:00+12зюз3468100 1.9 1000779
17:00+11зсз22715 0.0 1000136
20:00+10з227635 0.1 100141
8 декабря, ср
ср823:00+10зсз228096 0.3 1002121
02:00+10ссз227998 0.4 100392
05:00+10ссз228132 0.2 100576
08:00+9ссз118314 0.2 100862
11:00+13з455549 0.0 10101075
14:00+14зсз67485 0.0 10101386
17:00+12з34575 0.0 1012285
20:00+11зсз12630 0.0 101462
9 декабря, чт
чт923:00+10зюз12665 0.0 101535
02:00+9зсз116955 0.0 101631
05:00+9ссз017092 0.0 101620
08:00+9вюв117067 0.0 101616
11:00+13ююз23575 0.0 1017386
14:00+15ю34577 0.0 1015528
17:00+13ююв117369 0.0 101444
20:00+14ююз6118629 0.0 1015304